Погода в Тамбове

Поиск расширенной информации на нашем сайте:

Полезная информация:

Новости сайта



02.01.2020
Опубликован Долгосрочный прогноз погоды по городам России и ближнего зарубежья на январь 2020 года.
Карты: Прогноз на январь и февраль 2020 года, Сравнение прогнозируемой аномалии приземной температуры воздуха на январь 2020 года по разным моделям.




Погода в Тамбове - сегодня

Время (UTC), дата Ветер
(°,м/с) 
Видим.   Явления Облачность Т
(°С)
Тd
(°С)
f(%) Тe
(°С)
Pmin
(гПа)
dP
(гПа)
Po
(мм)
O2
(г/м3)
Тmin Tmax R s Состояние
почвы
15 02.07.20 270 (З) 10 км    4/0 средняя 
[Ac trans]
+27.6 +14.3 44 +35  1013.2  -0.3  749  271    +20.2       
18 02.07.20 130 (ЮВ) 10 км    3/0 верхняя 
[Ci fib]
+22.4 +15.6 65 +32  1014.1  0.6  749  276           
21 02.07.20 130 (ЮВ) 10 км    8/0 верхняя 
[Ci fib]
+17.6 +15.1 85 +28  1014.9  0.6  749  280           
00 03.07.20 140 (ЮВ) 10 км    9/0 верхняя 
[Ci fib]
+16.6 +13.9 84 +24  1014.8  0.2  749  282           
03 03.07.20 160 (Ю) 10 км    5/0 верхняя 
[Ci fib]
+17.2 +14.5 84 +26  1015.5  0.8  750  281  +16.5         
06 03.07.20 200 (Ю) 10 км    5/0 верхняя 
[Ci sp]
+26.4 +15.1 50 +35  1015.8  0.7  750  273           
09 03.07.20 200 (Ю) 10 км    6/4 1000 м верхняя 
[Cu hum|Ci sp]
+28.8 +13.8 40 +35  1015.7  750  271           
12 03.07.20 200 (Ю) 10 км    8/5 1000 м верхняя 
[Cu hum|Ci sp]
+30.5 +14.4 38 +38  1014.9  -0.7  750  269           
15 03.07.20 140 (ЮВ) 10 км    6/4 1000 м верхняя 
[Cu hum|Ci fib]
+27.5 +15.2 47 +37  1014.1  -0.9  749  271    +30.9       
18 03.07.20 100 (В) 10 км    3/0 верхняя 
[Ci fib]
+24.3 +15.1 56 +33  1014.7  0.4  749  274           
21 03.07.20 тихо ()   10 км    4/0 верхняя 
[Ci fib]
+19.8 +14.3 71 +27  1015.3  0.4  750  279           
00 04.07.20 нст () 10 км    6/0 средняя 
[Ac trans]
+20.4 +14.2 68 +28  1014.7  -0.6  749  278           
03 04.07.20 160 (Ю) 10 км    3/0 средняя 
[Ac trans]
+21.4 +15 67 +30  1014.3  -0.3  749  277  +18.3         
06 04.07.20 130 (ЮВ) 10 км    3/3 1000 м 
[Cu hum]
+27 +17.5 56 +40  1013.6  -0.4  749  271           
09 04.07.20 140 (ЮВ) 10 км  {гроза}  8/6 1000 м кучево-дожд., средняя 
[Cb calv|Ac trans]
+26.8 +19 62 +43  1014.2  0.6  749  270           
12 04.07.20 170 (Ю) 10 км  {гроза}  8/6 1000 м кучево-дожд., средняя 
[Cb calv|Ac trans]
+31 +18.7 48 +47  1013.1  -0.9  749  267           
15 04.07.20 170 (Ю) 7-12{12}  10 км  гроза без осадков  9/9 900 м кучево-дожд. 
[Cb cap]
+28 +18.9 58 +44  1013.1  -0.2  748  269    +31.1  0.0     
18 04.07.20 210 (ЮЗ) 3{12}  10 км  {гроза, ливн. осадки}  9/9 1000 м кучево-дожд. 
[Cb calv]
+23.6 +15.1 59 +33  1013.1  -0.2  748  274           
21 04.07.20 080 (В) 10 км    9/5 1000 м кучево-дожд., средняя 
[Cb calv|Ac trans]
+21.6 +17.6 78 +35  1012.2  -0.9  748  275           
00 05.07.20 340 (С) 2{12}  10 км  в посл. час ливневой дождь  9/9 1000 м кучево-дожд. 
[Cb calv]
+20.5 +17.3 82 +34  1012.9  0.6  748  276           
03 05.07.20 090 (В) 10 км    8/3 1000 м средняя 
[Sc|Ac trans]
+21.7 +16.9 74 +34  1012.1  -0.7  748  275  +18.5    0.4     
06 05.07.20 320 (СЗ) 10 км    9/4 1000 м верхняя 
[Cu hum|Ci fib]
+25.3 +18.1 64 +40  1012.4  0.5  748  272           
09 05.07.20 090 (В) 10 км    9/0 средняя, верхняя 
[Ac trans|Ci fib]
+28.6 +18 53 +43  1011.1  -1.2  747  268           
12 05.07.20 180 (Ю) 10 км    9/0 средняя, верхняя 
[Ac trans|Ci fib]
+31.8 +18.2 44 +47  1009.7  -1.2  746  265           
15 05.07.20 360 (С) 10 км    8/0 верхняя 
[Ci sp]
+30.1 +19.6 53 +48  1008.9  -0.9  745  266    +33.8       
Время (UTC), дата Ветер
(°,м/с) 
Видим.   Явления Облачность Т
(°С)
Тd
(°С)
f(%) Тe
(°С)
Pmin
(гПа)
dP
(гПа)
Po
(мм)
O2
(г/м3)
Тmin Tmax R s Состояние
почвы

Для получения пояснительной информации подведите курсор к названию столбца.

ПОГОДА в Тамбове - архив

Всё, что Вы хотите узнать о погоде в Тамбове - удобно и подробно!

Выберите нужную дату (начиная с 1 января 2019* года) и нажмите кнопку "Найти".
Будут отображены архивные сводки погоды по пункту Тамбов, начиная с указанной даты.


Отображать данные в формате CSV (для использования в таблицах Excel)


Внимание! Наш архив погоды предназначен исключительно для личного некоммерческого использования в познавательных целях. Если Вам необходимы официальные справки о состоянии погоды (для производственных, юридических, коммерческих и т.п. целей), обращайтесь в органы Росгидромета.

*Примечание: данная дата относится к архиву по метеостанциям СССР (Россия, СНГ, Балтия).
Архив по метеостанциям Зарубежной Европы и Азии (кроме Китая) хранится 10 дней, по другим регионам земного шара (Китай, Африка, Америка, Австралия, Океания) - 1 день.

Тамбов - район местоположения метеостанции


Название, широта, долгота, высота метеостанции:
Тамбов 52.8°ш. 41.3°д. 128 м над ур. моря [Российская Федерация]

Дополнительная информация

В oтличие oт бoльшинства пoгoдных сайтoв мы публикуем пoдрoбную метеoинфoрмацию в детальнoм прoфессиoнальнoм фoрмате.

Характеристики температуры и влажнoсти вoздуха измеряются на высoте 2 м в тени вдали oт зданий и деревьев.
Скoрoсть ветра измеряется на высoте 10 м (на урoвне рoста челoвека скoрoсть ветра ниже в 1.5-2 раза). Если метеoстанция нахoдится в гoрoде или в лесу, тo скoрoсть ветра занижена на 2-4 м/с пo сравнению с oткрытым местoм. Скoрoсть ветра над акватoриями крупных рек и oзёр, а также на вершинах хoлмoв на 2-5 м/с выше, чем в oбычных услoвиях.
Атмoсфернoе давление в разных тoчках местнoсти мoжет значительнo oтличаться oт давления на метеoстанции, в зависимoсти oт услoвий рельефа (при пoдъёме на 10 м давление пoнижается примернo на 1 мм рт.ст.).